DW6794 Weather Reports


Display with metric or nautical units.
time (UTC)temp
F
wind
direction
speed
MPH
gust
MPH
rain 1hr
in
rain 24hr
in
rain mn
in
humidity
%
barometer
mb
20160827143912 80 314 0.0 0.0 0.00 0.00 0.00 82 1016.2
20160827142911 79 314 0.0 2.0 0.00 0.00 0.00 83 1016.3
20160827141912 78 314 1.0 2.0 0.00 0.00 0.00 83 1016.5
20160827134912 78 321 0.0 0.0 0.00 0.00 0.00 84 1016.4
20160827133911 77 321 0.0 0.0 0.00 0.00 0.00 85 1016.4
20160827130912 75 321 0.0 0.0 0.00 0.00 0.00 86 1016.0
20160827125912 73 321 0.0 1.0 0.00 0.00 0.00 87 1016.0
20160827124912 72 321 0.0 1.0 0.00 0.00 0.00 87 1016.0
20160827123911 71 320 0.0 0.0 0.00 0.00 0.00 88 1016.0
20160827122911 70 320 0.0 3.0 0.00 0.00 0.00 87 1015.9
20160827121911 69 343 0.0 0.0 0.00 0.00 0.00 87 1016.0
20160827120912 68 13 0.0 1.0 0.00 0.00 0.00 87 1015.9
20160827115912 67 57 0.0 0.0 0.00 0.00 0.00 88 1015.8
20160827114911 66 57 0.0 0.0 0.00 0.00 0.00 87 1015.6
20160827113911 65 61 0.0 0.0 0.00 0.00 0.00 87 1015.5
20160827112911 65 61 0.0 0.0 0.00 0.00 0.00 87 1015.5
20160827111912 65 61 0.0 0.0 0.00 0.00 0.00 87 1015.4
20160827110912 65 61 0.0 0.0 0.00 0.00 0.00 87 1015.0
20160827105911 65 61 0.0 1.0 0.00 0.00 0.00 87 1015.0
20160827104911 65 61 0.0 0.0 0.00 0.00 0.00 87 1015.0
20160827102912 65 61 0.0 1.0 0.00 0.00 0.00 86 1015.0
20160827100911 65 61 1.0 3.0 0.00 0.00 0.00 86 1015.0
20160827095912 65 59 0.0 3.0 0.00 0.00 0.00 86 1015.0
20160827094912 65 59 0.0 0.0 0.00 0.00 0.00 86 1015.0
20160827093912 65 59 0.0 0.0 0.00 0.00 0.00 86 1015.0
20160827092912 65 59 0.0 0.0 0.00 0.00 0.00 85 1015.0
20160827091912 65 59 0.0 0.0 0.00 0.00 0.00 85 1015.0
20160827090912 65 59 0.0 0.0 0.00 0.00 0.00 85 1015.0
20160827085913 65 59 0.0 0.0 0.00 0.00 0.00 84 1015.0
20160827084912 65 59 0.0 0.0 0.00 0.00 0.00 84 1015.0
20160827083912 66 59 0.0 0.0 0.00 0.00 0.00 84 1015.0
20160827081913 66 59 0.0 0.0 0.00 0.00 0.00 84 1015.0
20160827080913 66 59 0.0 0.0 0.00 0.00 0.00 84 1015.0
20160827075912 66 59 0.0 0.0 0.00 0.00 0.00 84 1015.0
20160827074913 67 59 0.0 0.0 0.00 0.00 0.00 84 1015.0
20160827073912 67 59 0.0 0.0 0.00 0.00 0.00 84 1015.1
20160827072912 67 59 0.0 0.0 0.00 0.00 0.00 83 1015.2
20160827071913 67 59 0.0 0.0 0.00 0.00 0.00 83 1015.2
20160827070912 67 59 0.0 0.0 0.00 0.00 0.00 83 1015.2
20160827065913 68 59 0.0 0.0 0.00 0.00 0.00 83 1015.2
20160827064913 68 59 0.0 0.0 0.00 0.00 0.00 82 1015.3
20160827063913 68 59 0.0 0.0 0.00 0.00 0.00 82 1015.3
20160827062913 68 59 0.0 0.0 0.00 0.00 0.00 82 1015.4
20160827060913 69 59 0.0 0.0 0.00 0.00 0.00 81 1015.5
20160827054913 70 59 0.0 0.0 0.00 0.00 0.00 81 1015.5
20160827052913 70 59 0.0 0.0 0.00 0.00 0.00 81 1015.4
20160827051913 71 59 0.0 0.0 0.00 0.00 0.00 81 1015.4
20160827050913 71 59 0.0 0.0 0.00 0.00 0.00 80 1015.4
20160827043912 71 59 0.0 0.0 0.00 0.00 0.00 79 1015.4
20160827042913 72 59 0.0 0.0 0.00 0.00 0.00 79 1015.4
20160827041913 72 59 0.0 0.0 0.00 0.00 0.00 79 1015.4
20160827040913 72 59 0.0 0.0 0.00 0.00 0.00 79 1015.5
20160827034913 73 59 0.0 0.0 0.00 0.00 0.00 79 1015.5
20160827033913 73 59 0.0 0.0 0.00 0.00 0.00 78 1015.5
20160827032913 73 59 0.0 0.0 0.00 0.00 0.00 78 1015.5
20160827031913 74 59 0.0 0.0 0.00 0.00 0.00 77 1015.5
20160827030913 74 59 0.0 0.0 0.00 0.00 0.00 77 1015.4
20160827025913 74 59 0.0 0.0 0.00 0.00 0.00 77 1015.5
20160827024913 74 59 0.0 0.0 0.00 0.00 0.00 77 1015.5
20160827023913 74 59 0.0 0.0 0.00 0.00 0.00 76 1015.4
20160827022913 75 59 0.0 0.0 0.00 0.00 0.00 75 1015.4
20160827021914 75 59 0.0 0.0 0.00 0.00 0.00 74 1015.5
20160827020914 75 59 0.0 0.0 0.00 0.00 0.00 73 1015.5
20160827015914 76 59 0.0 0.0 0.00 0.00 0.00 72 1015.4
20160827014913 76 59 0.0 0.0 0.00 0.00 0.00 73 1015.2
20160827013913 76 59 0.0 0.0 0.00 0.00 0.00 71 1015.1
20160827012914 76 59 0.0 0.0 0.00 0.00 0.00 71 1015.0
20160827011914 77 59 0.0 0.0 0.00 0.00 0.00 71 1015.0
20160827005913 79 59 0.0 0.0 0.00 0.00 0.00 67 1014.7
20160827004914 80 59 0.0 0.0 0.00 0.00 0.00 65 1014.5
20160827003913 80 59 0.0 0.0 0.00 0.00 0.00 64 1014.4
20160827002913 81 59 0.0 0.0 0.00 0.00 0.00 64 1014.3
20160827001914 82 59 0.0 0.0 0.00 0.00 0.00 63 1013.8
20160827000914 83 59 0.0 0.0 0.00 0.00 0.00 62 1013.7
20160826235914 84 59 0.0 0.0 0.00 0.00 0.00 60 1013.5
20160826234914 85 59 0.0 0.0 0.00 0.00 0.00 60 1013.3
20160826233913 86 59 0.0 2.0 0.00 0.00 0.00 58 1013.2
20160826232914 87 59 2.0 3.0 0.00 0.00 0.00 57 1013.2
20160826231914 88 59 2.0 3.0 0.00 0.00 0.00 55 1013.2
20160826230914 88 59 1.0 3.0 0.00 0.00 0.00 54 1013.1
20160826225914 88 59 3.0 7.0 0.00 0.00 0.00 54 1013.2
20160826224914 89 53 3.0 3.0 0.00 0.00 0.00 54 1013.1
20160826223913 89 53 3.0 6.0 0.00 0.00 0.00 54 1013.2
20160826222914 89 53 3.0 6.0 0.00 0.00 0.00 54 1013.2
20160826221914 89 53 3.0 5.0 0.00 0.00 0.00 54 1013.2
20160826220913 89 53 3.0 7.0 0.00 0.00 0.00 54 1013.2
20160826215914 89 57 4.0 8.0 0.00 0.00 0.00 54 1013.2
20160826214914 89 69 3.0 6.0 0.00 0.00 0.00 55 1013.2
20160826213914 89 70 4.0 10.0 0.00 0.00 0.00 55 1013.2
20160826212913 90 85 5.0 7.0 0.00 0.00 0.00 55 1013.2
20160826210914 89 85 4.0 10.0 0.00 0.00 0.00 56 1013.2
20160826205914 89 74 5.0 12.0 0.00 0.00 0.00 57 1013.2
20160826204914 89 82 3.0 8.0 0.00 0.00 0.00 56 1013.4
20160826203914 89 72 4.0 7.0 0.00 0.00 0.00 57 1013.7
20160826202914 89 71 6.0 8.0 0.00 0.00 0.00 58 1013.7
20160826201914 89 75 0.0 5.0 0.00 0.00 0.00 58 1013.8
20160826200915 89 75 3.0 7.0 0.00 0.00 0.00 59 1014.0
20160826195914 89 76 3.0 7.0 0.00 0.00 0.00 58 1014.2
20160826194914 89 73 3.0 6.0 0.00 0.00 0.00 59 1014.2
20160826191915 88 49 3.0 5.0 0.00 0.00 0.00 62 1014.8
20160826190915 88 49 1.0 8.0 0.00 0.00 0.00 63 1014.9
20160826185914 88 74 4.0 7.0 0.00 0.00 0.00 63 1015.0
20160826184914 88 90 5.0 8.0 0.00 0.00 0.00 64 1015.2
20160826183915 88 70 1.0 6.0 0.00 0.00 0.00 64 1015.3
20160826182914 87 61 5.0 7.0 0.00 0.00 0.00 65 1015.5
20160826181915 87 61 4.0 8.0 0.00 0.00 0.00 65 1015.6
20160826180915 87 74 2.0 8.0 0.00 0.00 0.00 67 1015.6
20160826175915 87 11 1.0 5.0 0.00 0.00 0.00 69 1015.7
20160826174914 86 101 5.0 7.0 0.00 0.00 0.00 68 1015.8
20160826173914 86 74 1.0 7.0 0.00 0.00 0.00 69 1015.9
20160826172914 85 63 4.0 7.0 0.00 0.00 0.00 70 1016.0
20160826170915 85 83 3.0 6.0 0.00 0.00 0.00 70 1016.3
20160826165914 86 84 3.0 6.0 0.00 0.00 0.00 72 1016.4
20160826164916 85 89 5.0 8.0 0.00 0.00 0.00 72 1016.5
20160826163914 85 79 1.0 6.0 0.00 0.00 0.00 72 1016.5
20160826162915 85 79 4.0 7.0 0.00 0.00 0.00 73 1016.5
20160826161914 84 36 6.0 9.0 0.00 0.00 0.00 73 1016.5
20160826160915 84 76 5.0 8.0 0.00 0.00 0.00 74 1016.6
20160826155915 84 73 6.0 8.0 0.00 0.00 0.00 75 1016.7
20160826154915 83 75 5.0 8.0 0.00 0.00 0.00 77 1016.9
20160826153914 83 46 7.0 10.0 0.00 0.00 0.00 77 1016.9
20160826151915 83 56 1.0 3.0 0.00 0.00 0.00 79 1017.0
20160826150915 83 56 2.0 3.0 0.00 0.00 0.00 79 1017.0